User: anonymous   Login
Location: Unspecified
(50.1700°N, 6.8600°E)
Time: 19:31:30
(UTC+00:00)
Language:

Cosmos 2263 - Orbit

View from above orbital plane
View from above orbital plane
View from above satellite
View from above satellite

Ground track
Ground track

The orbit data is extracted from the following two-line orbital elements,

1 22802U 93059A   19081.92384485 -.00000082 +00000-0 -18281-4 0  9998
2 22802 070.9292 048.6374 0024986 340.2504 019.7647 14.13193999315859
Epoch (UTC): 22 March 2019 22:10:20
Eccentricity: 0.0024986
inclination: 70.9292°
perigee height: 830 km
apogee height: 866 km
right ascension of ascending node: 48.6374°
argument of perigee: 340.2504°
revolutions per day: 14.13193999
mean anomaly at epoch: 19.7647°
orbit number at epoch: 31585

The dashed part of the orbit path shows where the satellite is in the earth's shadow,  

DLR